DW8069 Weather Reports


time (UTC)temp
C
wind
direction
speed
KPH
gust
KPH
rain 1hr
cm
rain 24hr
cm
rain mn
cm
humidity
%
barometer
mb
20260508164559 13 80 0.0 6.4 0.00 0.03 0.00 37 1020.2
20260508163107 13 131 0.0 6.4 0.00 0.03 0.00 40 1020.1
20260508161559 12 115 0.0 4.8 0.00 0.03 0.00 38 1020.4
20260508160054 12 152 1.6 4.8 0.00 0.03 0.00 43 1020.6
20260508154555 12 136 1.6 4.8 0.00 0.03 0.00 43 1020.8
20260508153103 12 218 1.6 4.8 0.00 0.03 0.00 48 1020.9
20260508151548 12 110 0.0 4.8 0.00 0.03 0.00 43 1021.0
20260508150045 11 112 0.0 4.8 0.00 0.03 0.00 42 1021.2
20260508144543 11 102 1.6 8.0 0.00 0.03 0.00 46 1021.1
20260508143101 10 95 0.0 6.4 0.00 0.03 0.00 42 1021.2
20260508141540 10 101 0.0 4.8 0.00 0.03 0.00 37 1021.1
20260508140036 9 111 0.0 4.8 0.00 0.03 0.00 40 1021.1
20260508134537 8 99 0.0 4.8 0.00 0.03 0.00 42 1021.1
20260508133030 8 106 0.0 3.2 0.00 0.03 0.00 49 1020.9
20260508131526 7 91 0.0 1.6 0.00 0.03 0.00 53 1020.7
20260508130023 6 92 0.0 1.6 0.00 0.03 0.00 60 1020.6
20260508124523 5 92 0.0 1.6 0.00 0.03 0.00 64 1020.5
20260508123023 5 92 0.0 1.6 0.00 0.03 0.00 72 1020.3
20260508121518 4 105 0.0 1.6 0.00 0.03 0.00 67 1020.2
20260508120016 4 105 0.0 1.6 0.00 0.03 0.00 73 1020.0
20260508114514 3 43 0.0 1.6 0.00 0.13 0.00 78 1019.7
20260508113011 3 43 0.0 1.6 0.00 0.13 0.00 80 1019.4
20260508111514 3 43 0.0 1.6 0.00 0.13 0.00 79 1019.1
20260508110019 3 46 0.0 1.6 0.00 0.13 0.00 82 1018.8
20260508104505 3 46 0.0 1.6 0.00 0.20 0.00 82 1018.7
20260508103011 3 46 0.0 1.6 0.00 0.20 0.00 81 1018.4
20260508101505 3 46 0.0 1.6 0.00 0.20 0.00 79 1018.2
20260508100130 3 46 0.0 1.6 0.00 0.20 0.00 81 1017.8
20260508094558 3 46 0.0 1.6 0.00 0.23 0.00 81 1017.9
20260508093058 3 46 0.0 1.6 0.00 0.23 0.00 84 1017.9
20260508091610 3 46 0.0 1.6 0.00 0.23 0.00 85 1017.7
20260508090055 3 46 0.0 1.6 0.00 0.23 0.00 86 1017.7
20260508084553 3 46 0.0 1.6 0.00 0.23 0.00 88 1017.6
20260508083051 3 46 0.0 1.6 0.00 0.23 0.00 90 1017.6
20260508081608 3 46 0.0 1.6 0.00 0.23 0.00 90 1017.5
20260508080046 3 46 0.0 1.6 0.00 0.23 0.00 90 1017.4
20260508074545 3 45 0.0 1.6 0.00 0.23 0.00 91 1017.3
20260508073048 4 74 0.0 1.6 0.00 0.23 0.00 91 1017.3
20260508071541 4 139 0.0 1.6 0.00 0.23 0.00 91 1017.1
20260508070039 4 139 0.0 1.6 0.00 0.23 0.00 91 1017.1
20260508064538 5 136 0.0 4.8 0.00 0.25 0.00 91 1017.3
20260508063036 5 240 0.0 1.6 0.00 0.25 0.00 94 1017.1
20260508061535 5 240 0.0 3.2 0.00 0.25 0.00 93 1017.2
20260508060035 5 170 0.0 0.0 0.00 0.25 0.00 94 1017.3
20260508054605 6 170 0.0 3.2 0.00 0.25 0.00 93 1017.3
20260508053038 6 95 0.0 4.8 0.00 0.25 0.00 94 1017.3
20260508051524 6 77 0.0 3.2 0.00 0.25 0.00 94 1017.3
20260508050024 6 148 0.0 3.2 0.00 0.25 0.00 94 1017.0
20260508044519 6 218 0.0 4.8 0.00 0.25 0.00 95 1016.7
20260508043021 6 207 0.0 1.6 0.00 0.25 0.00 95 1016.6
20260508041516 6 207 0.0 1.6 0.00 0.25 0.00 95 1016.5
20260508040013 6 207 0.0 3.2 0.00 0.25 0.00 95 1016.3
20260508034513 6 340 0.0 1.6 0.00 0.25 0.25 95 1016.3
20260508033017 6 340 0.0 3.2 0.00 0.25 0.25 95 1016.3
20260508031513 6 340 0.0 1.6 0.00 0.25 0.25 95 1016.2
20260508030010 6 332 0.0 1.6 0.00 0.25 0.25 95 1016.0
20260508024508 6 332 0.0 1.6 0.00 0.38 0.25 95 1015.9
20260508023007 6 333 0.0 1.6 0.00 0.38 0.25 95 1015.8
20260508021505 6 246 0.0 1.6 0.00 0.38 0.25 95 1015.7
20260508020004 6 245 0.0 1.6 0.00 0.38 0.25 95 1015.4
20260508014503 6 245 0.0 1.6 0.00 0.51 0.25 95 1015.3
20260508013104 5 245 0.0 1.6 0.00 0.51 0.25 95 1015.1
20260508011615 5 245 0.0 1.6 0.00 0.51 0.25 94 1014.7
20260508010059 6 245 0.0 1.6 0.00 0.51 0.25 94 1014.5
20260508004555 6 245 0.0 1.6 0.00 0.53 0.25 93 1014.2
20260508003053 6 245 0.0 3.2 0.00 0.53 0.25 93 1014.1
20260508001550 7 136 0.0 3.2 0.00 0.53 0.25 92 1014.2
20260508000048 7 130 0.0 1.6 0.00 0.53 0.25 93 1014.1
20260507234547 7 133 0.0 3.2 0.00 0.56 0.25 94 1014.3
20260507233047 7 33 0.0 3.2 0.00 0.56 0.25 94 1014.0
20260507231547 7 34 0.0 3.2 0.00 0.56 0.25 94 1014.0
20260507230044 7 234 0.0 1.6 0.00 0.56 0.25 94 1013.9
20260507224546 7 234 0.0 3.2 0.00 0.58 0.25 95 1013.8
20260507223042 7 235 0.0 1.6 0.03 0.58 0.25 95 1013.5
20260507221540 7 235 0.0 3.2 0.03 0.58 0.25 95 1013.2
20260507220039 7 15 0.0 1.6 0.03 0.58 0.25 95 1013.0
20260507214545 7 8 0.0 1.6 0.03 0.58 0.25 95 1012.9
20260507213037 7 8 0.0 3.2 0.00 0.56 0.23 94 1012.7
20260507211540 7 330 0.0 4.8 0.00 0.56 0.23 94 1012.7
20260507210036 7 332 0.0 3.2 0.00 0.56 0.23 94 1012.4
20260507204531 7 274 0.0 11.3 0.00 0.56 0.23 94 1012.2
20260507203034 8 70 0.0 3.2 0.00 0.56 0.23 93 1012.0
20260507201524 8 181 0.0 3.2 0.00 0.56 0.23 94 1012.0
20260507200024 8 110 0.0 1.6 0.00 0.56 0.23 93 1011.9
20260507194527 8 37 0.0 1.6 0.00 0.56 0.23 93 1011.9
20260507193021 8 37 0.0 1.6 0.00 0.56 0.23 93 1012.0
20260507191518 9 113 0.0 3.2 0.00 0.56 0.23 93 1012.0
20260507190017 9 231 0.0 3.2 0.00 0.56 0.23 93 1011.9
20260507184514 10 104 0.0 3.2 0.00 0.56 0.23 91 1012.0
20260507183026 10 29 0.0 3.2 0.00 0.56 0.23 91 1012.0
20260507181509 10 51 0.0 1.6 0.00 0.56 0.23 91 1011.8
20260507180010 10 64 0.0 3.2 0.00 0.56 0.23 92 1011.8
20260507174511 11 198 0.0 3.2 0.00 0.56 0.23 91 1011.8
20260507173008 11 46 0.0 8.0 0.00 0.56 0.23 93 1011.7
20260507171507 11 52 0.0 8.0 0.00 0.56 0.23 93 1011.5
20260507170005 11 85 0.0 4.8 0.00 0.56 0.23 94 1011.4